Terminal Aerodrome Forecast
Issued by NWS Melbourne, FL

Home | Current Version | Previous Version | Text Only | Print | Product List | Glossary On
Versions: 1 2 3 4 5 6 7 8 9 10 11 12 13
511
FTUS42 KMLB 222346
TAFMLB
TAF
KMLB 222346Z 2300/2324 11009KT P6SM FEW040 BKN140
     FM230900 17004KT P6SM SCT020 BKN040 OVC080
      TEMPO 2310/2314 3SM SHRA BKN010 OVC020
     FM231400 19008KT P6SM VCSH BKN020 OVC040
      TEMPO 2314/2318 5SM -RA BR BKN012 OVC025
     FM231800 20010KT P6SM VCTS SCT035CB BKN050=

USA.gov is the U.S. government's official web portal to all federal, state and local government web resources and services.